Details From KPIB - HATTIESBURG LAUREL RGNL
To KGLS - Scholes INTL at Galveston
Flight Number -
Tags decoded
Created
Modified
Stats Distance 317 nm / 587 km
Max Altitude 0 ft / 0 m
Waypoints 3
Social Downloads 0
Likes 0
Share VATSIM

Download

Looking for another format? Having issues loading an existing format? Contact us
Advertisement - Login to hide

Notes

Requested: KPIB LBY KGLS

Route

KPIB LBY KGLS

ID Type Via Altitude Latitude Longitude Leg Dist Tot Dist Heading (true) Name
O KPIB APT - 0 ft / 0 m 31.46715˚ -89.33706˚ - 0 nm - HATTIESBURG LAUREL RGNL
LBY VOR - 0 ft / 0 m 31.41869˚ -89.33761˚ 2 nm 2 nm 181° / 181° EATON VORTAC
O KGLS APT - 0 ft / 0 m 29.26532˚ -94.86041˚ 314 nm 316 nm 247° / 244° Scholes INTL at Galveston

Altitude Profile

Advertisement - Login to hide

Weather


0- 5 10 15 20 25 30 35+ Temperature / ° C

Clouds and Precipitation
Forecast for 2018-05-23 06:00 UTC. Updated 3 hours ago

Ground ~20,000 ft ~40,000 ft Winds

KPIB

Details ICAO KPIB (PIB)
Name HATTIESBURG LAUREL RGNL
Region United States
Timezone America/Chicago (UTC-5.0)
Stats Elevation 297 ft / 91 m (AMSL)
Location 31.467146° -89.337058°
Runways 1
Magnetic Variation 1.520° W

METAR

KPIB 230756Z AUTO 12003KT 10SM CLR 21/21 A3002 RMK AO2 SLP163 T02110206

Decode

TAF

Not found

Departure Runways

ID Width Length Bearing (true) Bearing (mag) Surface Threshold Offset Overrun Length
18 150 ft / 46 m 6,523 ft / 1,988 m 179.94° 181.46° Asphalt 0 ft / 0 m 200 ft / 61 m
36 150 ft / 46 m 6,523 ft / 1,988 m 359.94° 1.46° Asphalt 0 ft / 0 m 0 ft / 0 m

KGLS

Details ICAO KGLS (GLS)
Name Scholes INTL at Galveston
Region United States
Timezone America/Chicago (UTC-5.0)
Stats Elevation 6 ft / 2 m (AMSL)
Location 29.265321° -94.860412°
Runways 2
Magnetic Variation 2.152° E

METAR

KGLS 230752Z AUTO 14007KT 10SM CLR 26/23 A2998 RMK AO2 SLP150 T02610233

Decode

TAF

TAF KGLS 230520Z 2306/2406 13008KT P6SM SCT018 FM231100 12006KT P6SM VCSH FEW020 SCT250 FM231600 13008KT P6SM SCT025 BKN250

Decode

Destination Runways

ID Width Length Bearing (true) Bearing (mag) Surface Threshold Offset Overrun Length
13 151 ft / 46 m 6,008 ft / 1,831 m 140.26° 138.11° Asphalt 0 ft / 0 m 0 ft / 0 m
17 151 ft / 46 m 6,023 ft / 1,836 m 180.86° 178.71° Concrete 0 ft / 0 m 0 ft / 0 m
31 151 ft / 46 m 6,008 ft / 1,831 m 320.26° 318.11° Asphalt 0 ft / 0 m 0 ft / 0 m
35 151 ft / 46 m 6,023 ft / 1,836 m 0.86° 358.71° Concrete 0 ft / 0 m 0 ft / 0 m

Approach Navaids

Runway Type Ident Frequency Range Bearing (true) Bearing (mag) Slope Elevation
13 Localiser IGLS 111.70 MHz 18 nm / 33 km 140.26° 138.11° - 7 ft / 2 m (AMSL)
13 Glidescope IGLS 111.70 MHz 10 nm / 19 km 140.26° 138.11° 3.00° 5 ft / 2 m (AMSL)

Popular Alternatives